{"data":{"norad_id":58104,"epoch":"2026-09-20T11:46:40.667808Z","epoch_age_seconds":141215,"freshness":"FRESH","line1":"1 58104U 23161H   26263.49074847  .00000952  00000+0  39312-4 0  9990","line2":"2 58104  53.1621 337.8789 0001343  91.1515 268.9642 15.34399221164283","mean_motion":15.34399221,"eccentricity":0.0001343,"inclination_deg":53.1621,"raan_deg":337.8789,"arg_perigee_deg":91.1515,"mean_anomaly_deg":268.9642,"bstar":3.9312e-5,"rev_number":16428,"period_min":93.847805726956,"perigee_km":461.78683040504,"apogee_km":463.62428071546,"semimajor_km":6840.8425555603,"source":"CELESTRAK","updated_at":"2026-09-21T09:00:33.787503Z"}}